Lapse_Rate
0.3 0.5 0.8 1.0 1.0 1.2 1.6 1.9 2.5 2.9 2.9 3.1 3.5 3.8 4.0 3.7 3.3 3.7 3.5 3.6 4.4 5.2
0.5 0.6 0.6 0.8 1.3 1.6 2.4 4.1 3.8 3.1 3.2 3.7 4.1 4.6 4.6 4.7 4.5 4.7 4.8 4.9 4.8 5.8
0.6 0.9 1.2 1.5 1.3 1.7 2.4 3.0 3.3 3.6 3.9 4.3 4.7 5.1 5.3 5.5 5.7 5.9 6.0 6.3 5.6 5.8
0.8 1.0 1.3 1.6 1.9 2.2 2.5 2.8 3.6 4.0 4.3 4.5 4.8 5.1 5.4 5.7 6.6 6.9 6.7 6.4 6.4 6.6
1.5 1.2 1.2 1.9 2.5 3.0 2.9 3.1 3.4 3.8 4.0 4.3 4.8 5.2 5.4 5.8 6.7 6.7 7.1 7.4 7.4 7.1
0.9 1.3 1.5 1.9 2.3 2.4 2.4 2.5 2.7 3.2 3.5 4.2 4.8 5.3 5.4 6.9 6.6 6.9 7.4 8.0 7.8 7.5
1.7 1.8 1.8 1.6 1.9 2.1 2.3 2.5 2.8 3.2 3.7 4.1 4.7 4.9 6.1 6.8 6.8 7.5 8.0 8.0 7.8 7.7
2.2 2.0 1.7 1.6 1.7 2.1 2.4 2.7 3.0 3.2 3.3 4.0 4.5 6.1 6.2 6.9 7.6 7.9 7.6 7.3 7.3 7.8
2.2 2.0 1.7 1.9 2.2 2.3 2.3 2.7 3.3 3.7 4.2 4.5 5.8 6.5 7.3 8.2 8.4 8.2 7.2 6.5 6.5 6.9
2.4 2.2 2.0 2.2 2.4 2.6 2.8 3.0 3.5 4.1 4.7 4.8 5.2 6.8 7.8 8.8 8.7 8.1 7.6 7.8 7.7 7.5
2.4 2.4 2.5 2.6 2.7 2.7 3.4 3.7 4.2 4.5 5.1 5.3 5.9 7.2 8.4 9.4 8.7 8.4 8.5 8.4 8.1 8.1
2.1 2.4 2.7 2.8 3.1 3.5 4.2 4.4 4.7 5.4 5.5 5.6 5.9 7.9 9.2 9.3 8.6 8.5 8.2 8.3 8.4 8.4
2.6 2.9 3.0 3.1 3.7 4.5 4.6 4.9 5.4 5.4 6.0 6.6 6.6 8.0 9.5 9.2 8.7 8.3 8.4 8.0 7.8 8.8
2.6 2.8 3.0 3.5 4.2 4.5 4.4 4.9 4.9 5.5 5.3 6.0 7.6 8.3 9.4 9.4 8.8 8.8 7.9 7.2 8.2 8.5
Wind_Speed
7 4 4 5 4 4 4 5 7 9 8 9 10 10 10 8 7 8 7 10 9 8
6 6 6 6 5 4 5 7 9 8 8 10 10 11 10 8 9 9 8 8 7 8
6 6 6 5 6 6 7 8 9 9 10 10 11 11 11 10 11 10 7 9 10 10
6 6 6 5 6 6 6 7 9 10 10 12 12 10 12 13 12 10 13 12 12 12
5 5 7 8 8 8 9 9 9 10 11 12 12 10 13 14 10 14 15 15 14 12
6 7 7 7 8 9 9 9 10 10 11 12 13 12 14 9 14 14 15 12 12 14
6 6 7 6 7 8 8 9 10 11 11 11 12 13 12 15 15 15 12 13 12 13
6 6 6 6 6 7 8 9 11 12 13 13 12 10 16 15 15 11 14 14 14 14
6 6 6 7 9 9 10 11 11 12 12 14 10 24 26 22 14 14 15 16 15 14
6 7 7 8 9 10 10 9 11 11 12 13 14 26 27 27 14 14 14 14 15 16
6 7 7 7 8 8 9 10 11 12 12 13 13 26 27 28 16 14 15 14 16 16
6 8 9 9 10 10 10 10 11 11 14 14 14 25 26 25 15 14 15 14 14 15
6 7 9 8 9 9 9 11 10 13 12 17 15 21 27 23 12 14 12 13 14 24
6 7 7 6 8 9 10 10 10 12 12 12 13 16 27 28 15 12 12 10 13 13
Wind_Direction
42 44 37 27 9 360 350 329 335 339 336 333 333 333 331 325 317 312 307 302 305 303
34 35 24 14 3 345 334 344 342 332 331 333 334 330 327 323 317 316 308 307 307 312
31 24 12 1 357 351 341 342 340 337 337 335 332 328 330 324 317 314 325 317 312 307
26 16 4 360 347 343 335 338 344 342 338 335 332 329 332 321 317 327 321 318 310 306
19 8 14 5 355 351 348 346 343 340 339 334 331 331 329 318 331 327 318 314 311 309
20 13 2 351 349 347 343 341 340 340 337 333 328 329 321 320 328 322 316 317 315 323
13 359 353 341 338 340 340 338 336 335 330 328 327 322 324 326 323 320 330 324 321 315
352 340 338 334 329 329 336 338 335 333 332 331 328 326 327 323 324 328 325 319 315 310
347 341 338 337 337 338 338 336 332 328 322 323 321 320 324 328 325 327 325 321 320 319
338 340 337 334 335 333 328 322 324 319 320 319 318 320 324 324 325 323 319 314 315 312
342 335 330 327 326 320 323 325 320 318 317 316 315 320 323 324 321 316 311 308 305 304
333 333 332 330 325 324 323 318 314 314 314 312 311 318 322 326 320 312 308 304 304 305
320 323 322 312 314 310 306 310 314 309 306 308 309 313 323 323 316 311 311 312 304 310
314 311 297 307 307 306 310 310 306 309 311 309 313 317 319 321 317 315 317 315 314 312